Regional Weather Roundup
Issued by NWS

Home | Current Version | Previous Version | Graphics & Text | Print | Product List | Glossary On
Versions: 1 2 3 4 5 6 7 8 9 10 11 12 13 14 15 16 17 18 19 20 21 22 23 24 25 26 27 28 29 30 31 32 33 34 35 36 37 38 39 40 41 42 43 44 45 46 47 48 49 50
000
ASUS45 KBOI 312310
RWRID
WEATHER ROUNDUP FOR IDAHO
NATIONAL WEATHER SERVICE BOISE ID
500 PM MDT SUN AUG 31 2014

NOTE: "FAIR" INDICATES FEW OR NO CLOUDS BELOW 12000 FEET
WITH NO SIGNIFICANT WEATHER AND/OR OBSTRUCTIONS TO VISIBILITY

IDZ012-014-010000-
SOUTHWEST IDAHO


CITY           SKY/WX    TMP DP  RH WIND       PRES   REMARKS
BOISE          SUNNY     72  40  31 VRB7      29.98F
CALDWELL       SUNNY     73  43  33 N8        29.99F
MOUNTAIN HOME  SUNNY     75  42  30 NW17      29.96F
$$

IDZ016-017-010000-
SOUTHCENTRAL IDAHO


CITY           SKY/WX    TMP DP  RH WIND       PRES   REMARKS
BURLEY         SUNNY     69  39  33 W14G20    30.01F
JEROME         SUNNY     70  39  32 W13       30.01F
TWIN FALLS     SUNNY     71  38  29 W12       30.01F
$$

IDZ019>023-010000-
SOUTHEAST IDAHO


CITY           SKY/WX    TMP DP  RH WIND       PRES   REMARKS
IDAHO FALLS    MOSUNNY   68  43  40 SW17G24   30.02S
POCATELLO      MOSUNNY   70  37  29 SW17G24   30.03S
REXBURG        SUNNY     65  43  44 SW14G23   30.01S
$$

IDZ006-010-011-018-031-032-010000-
CENTRAL IDAHO MOUNTAINS


CITY           SKY/WX    TMP DP  RH WIND       PRES   REMARKS
MCCALL         CLOUDY    61  36  39 VRB7      30.02F
HAILEY         MOSUNNY   68  37  32 SW7G17    30.00F
STANLEY          N/A     63  30  28 N8        30.06F
SALMON         MOSUNNY   70  39  32 N5        29.91F
CHALLIS        MOSUNNY   69  35  28 E6        29.95F
$$

IDZ002-004-006-007-026-010000-
NORTHERN IDAHO


CITY           SKY/WX    TMP DP  RH WIND       PRES   REMARKS
LEWISTON       SUNNY     75  42  30 NW8       29.94F
LOWELL           N/A     80  44  27 VRB3      29.92F
COEUR D`ALENE  CLOUDY    68  39  34 W14G23    29.94S
MULLAN PASS    PTSUNNY   47  41  80 VRB3      30.04F
$$


USA.gov is the U.S. government's official web portal to all federal, state and local government web resources and services.